Home   Weather   Luxembourg   Past weeks

Flag for Luxembourg Past Weather in Luxembourg, Luxembourg — Yesterday and Last 2 Weeks

41 °F


Feels Like: 41 °F
Forecast: 50 / 60 °F
Wind: 1 mph from North

Location: Luxembourg Airport

Current Time: Oct 28, 2016 at 6:35:44 AM

Latest Report: Oct 28, 2016 at 5:50 AM

Visibility: 0 mi

Pressure: 30.54 "Hg

Humidity: 93%

Dew Point: 39 °F

Location of LuxembourgLocation

Past Weather in Luxembourg — Graph


Luxembourg Temperature Yesterday

Maximum temperature yesterday: 52 °F (at 4:50 PM)
Minimum temperature yesterday: 37 °F (at 7:50 AM)
Average temperature yesterday: 45 °F

High & Low Weather Summary for the Past Weeks

High63 °F (Oct 16, 2:50 PM)100% (Oct 15, 6:20 AM)30.54 "Hg (Oct 15, 6:20 AM)
Low37 °F (Oct 27, 7:50 AM)54% (Oct 13, 1:50 PM)29.65 "Hg (Oct 14, 4:20 PM)
Average47 °F90%30.05 "Hg
* Reported Oct 13 5:20 AM — Oct 28 5:20 AM, Luxembourg, Weather by CustomWeather, © 2016

Note: Actual official high and low records may vary slightly from our data, if they occured in-between our weather recording intervals... More about our weather records


Luxembourg Weather History for the Previous 24 Hours

Scroll right to see more
Time TempWeatherWind HumidityBarometerVisibility
5:20 AM
Fri, Oct 28
41 °FFog.1 mph100%30.54 "Hg0 mi
4:50 AM41 °FFog.5 mph100%30.51 "Hg0 mi
4:20 AM41 °FFog.6 mph100%30.51 "Hg0 mi
3:50 AM43 °FFog.3 mph93%30.51 "Hg0 mi
3:20 AM43 °FFog.5 mph100%30.54 "Hg0 mi
2:50 AM43 °FFog.3 mph100%30.51 "Hg0 mi
2:20 AM43 °FFog.2 mph100%30.54 "Hg0 mi
1:50 AM43 °FFog.6 mph100%30.54 "Hg0 mi
1:20 AM43 °FFog.7 mph100%30.54 "Hg0 mi
12:50 AM45 °FFog.7 mph93%30.54 "Hg0 mi
12:20 AM45 °FFog.6 mph93%30.54 "Hg0 mi
11:50 PM
Thu, Oct 27
45 °FFog.6 mph93%30.54 "Hg0 mi
11:20 PM45 °FFog.6 mph100%30.54 "Hg1 mi
10:50 PM46 °FFog.6 mph93%30.54 "Hg1 mi
10:20 PM46 °FFog.6 mph93%30.54 "Hg1 mi
9:50 PM46 °FFog.5 mph93%30.54 "Hg1 mi
9:20 PM46 °FFog.5 mph93%30.54 "Hg1 mi
8:50 PM46 °FFog.5 mph100%30.54 "Hg2 mi
8:20 PM48 °FFog.5 mph94%30.54 "Hg2 mi
7:50 PM48 °FFog.5 mph94%30.54 "Hg2 mi
7:20 PM48 °FFog.3 mph94%30.54 "Hg2 mi
6:50 PM48 °FFog.3 mph94%30.54 "Hg2 mi
6:20 PM50 °FPassing clouds.3 mph88%30.54 "Hg4 mi
5:50 PM50 °FPartly sunny.2 mph88%30.54 "Hg5 mi
5:20 PM52 °FScattered clouds.3 mph82%30.54 "Hg4 mi
4:50 PM52 °FPartly sunny.2 mph82%30.54 "Hg4 mi
4:20 PM50 °FPartly sunny.3 mph88%30.54 "Hg4 mi
3:50 PM50 °FPartly sunny.3 mph88%30.54 "Hg4 mi
3:20 PM50 °FPartly sunny.3 mph88%30.54 "HgN/A
2:50 PM50 °FPartly sunny.5 mph88%30.54 "Hg4 mi
2:20 PM50 °FPartly sunny.3 mph82%30.54 "Hg4 mi
1:50 PM48 °FFog.3 mph87%30.54 "Hg3 mi
1:20 PM48 °FFog.5 mph87%30.54 "Hg3 mi
12:50 PM48 °FFog.3 mph87%30.54 "Hg2 mi
12:20 PM46 °FFog.2 mph93%30.54 "Hg2 mi
11:50 AM46 °FFog.2 mph93%30.54 "Hg2 mi
11:20 AM45 °FFog.2 mph93%30.54 "Hg2 mi
10:50 AM45 °FFog.3 mph93%30.54 "Hg2 mi
10:20 AM41 °FFog.2 mph100%30.54 "Hg2 mi
9:50 AM41 °FFog.1 mph93%30.54 "Hg1 mi
9:20 AM39 °FFog.1 mph100%30.54 "Hg1 mi
8:50 AM37 °FPartly sunny.No wind93%30.51 "Hg1 mi
8:20 AM37 °FBroken clouds.1 mph100%30.51 "Hg1 mi
7:50 AM37 °FPassing clouds.1 mph100%30.51 "Hg1 mi
7:20 AM39 °FFog.1 mph93%30.48 "Hg1 mi
6:50 AM39 °FChilly.1 mph100%30.48 "Hg1 mi
6:20 AM41 °FQuite cool.1 mph100%30.48 "Hg1 mi
Weather by CustomWeather, © 2016

See weather overviewHow to use our weather pages